TimePDT,TemperatureF,Dew PointF,Humidity,Sea Level PressureIn,VisibilityMPH,Wind Direction,Wind SpeedMPH,Gust SpeedMPH,PrecipitationIn,Events,Conditions,WindDirDegrees,DateUTC
12:54 AM,59.0,53.1,81,29.71,10.0,East,4.6,-,N/A,,Clear,100,2013-06-08 07:54:00
1:54 AM,57.9,52.0,81,29.71,10.0,SE,4.6,-,N/A,,Clear,130,2013-06-08 08:54:00
2:54 AM,57.9,52.0,81,29.71,10.0,Calm,Calm,-,N/A,,Clear,0,2013-06-08 09:54:00
3:54 AM,57.9,53.1,84,29.71,10.0,Calm,Calm,-,N/A,,Clear,0,2013-06-08 10:54:00
4:54 AM,55.9,52.0,87,29.71,10.0,Calm,Calm,-,N/A,,Clear,0,2013-06-08 11:54:00
5:54 AM,55.9,52.0,87,29.71,10.0,SE,4.6,-,N/A,,Clear,130,2013-06-08 12:54:00
6:54 AM,61.0,55.0,81,29.72,9.0,Calm,Calm,-,N/A,,Clear,0,2013-06-08 13:54:00
7:54 AM,64.0,55.0,73,29.73,10.0,Variable,5.8,-,N/A,,Clear,0,2013-06-08 14:54:00
8:54 AM,66.9,55.9,68,29.73,10.0,SW,3.5,-,N/A,,Clear,220,2013-06-08 15:54:00
9:54 AM,71.1,55.0,57,29.73,10.0,SSW,3.5,-,N/A,,Clear,200,2013-06-08 16:54:00
10:54 AM,73.9,57.0,55,29.72,10.0,SSW,6.9,-,N/A,,Clear,210,2013-06-08 17:54:00
11:54 AM,75.9,57.9,54,29.71,10.0,South,8.1,-,N/A,,Clear,190,2013-06-08 18:54:00
12:54 PM,79.0,57.9,48,29.70,10.0,SSW,9.2,-,N/A,,Clear,200,2013-06-08 19:54:00
1:54 PM,79.0,57.0,47,29.69,10.0,SSW,12.7,-,N/A,,Clear,200,2013-06-08 20:54:00
2:54 PM,77.0,57.0,50,29.69,10.0,South,16.1,-,N/A,,Clear,190,2013-06-08 21:54:00
3:54 PM,75.9,55.9,50,29.68,10.0,South,16.1,-,N/A,,Clear,190,2013-06-08 22:54:00
4:54 PM,72.0,55.9,57,29.69,10.0,South,19.6,-,N/A,,Clear,190,2013-06-08 23:54:00
5:54 PM,66.9,55.0,66,29.69,10.0,South,18.4,26.5,N/A,,Clear,180,2013-06-09 00:54:00
6:54 PM,64.0,55.0,73,29.70,10.0,South,21.9,29.9,N/A,,Clear,180,2013-06-09 01:54:00
7:54 PM,63.0,55.9,78,29.72,10.0,South,18.4,25.3,N/A,,Clear,190,2013-06-09 02:54:00
8:54 PM,64.9,55.0,70,29.74,10.0,West,10.4,-,N/A,,Clear,260,2013-06-09 03:54:00
9:54 PM,63.0,53.1,70,29.76,10.0,West,11.5,-,N/A,,Clear,260,2013-06-09 04:54:00
10:54 PM,60.1,53.1,78,29.78,10.0,West,9.2,-,N/A,,Clear,270,2013-06-09 05:54:00
11:54 PM,59.0,52.0,78,29.79,10.0,West,10.4,-,N/A,,Clear,280,2013-06-09 06:54:00